Location: Unspecified
(0.0000°N, 0.0000°E)
Time: 21:21:28
(UTC+00:00)

Vanguard 3 - All Passes

Search period start: 19 November 2017 00:00
Search period end: 29 November 2017 00:00
Orbit: 509 x 3263 km, 33.4° (Epoch: 18 November)

Date Brightness Start Highest point End Pass type
(mag) Time Alt. Az. Time Alt. Az. Time Alt. Az.
19 Nov - 01:48:24 10° NW 02:07:38 52° NNE 02:22:48 10° ESE visible
19 Nov - 04:05:27 10° WNW 04:24:29 72° SW 04:36:27 10° SE visible
19 Nov - 06:28:41 10° W 06:38:39 22° SW 06:45:42 10° S daylight
19 Nov - 15:32:14 10° SW 15:36:35 89° SE 15:43:38 10° NE daylight
19 Nov - 17:45:04 10° WNW 17:50:09 22° NNW 17:57:35 10° NNE daylight
19 Nov - 20:03:25 10° NNW 20:07:42 12° N 20:12:43 10° NNE visible
19 Nov - 22:19:14 10° NNW 22:29:02 17° NNE 22:40:14 10° NE visible
20 Nov - 00:32:44 10° NNW 00:49:56 37° NNE 01:05:58 10° E visible
20 Nov - 02:48:00 10° NW 03:08:13 81° NE 03:22:30 10° ESE visible
20 Nov - 05:07:49 10° WNW 05:23:38 40° SW 05:33:50 10° SSE visible
20 Nov - 14:19:55 10° SSW 14:23:24 30° SE 14:27:58 10° ENE daylight
20 Nov - 16:30:45 10° W 16:35:19 32° NNW 16:42:26 10° NE daylight
20 Nov - 18:47:08 10° NNW 18:50:52 13° N 18:55:22 10° NNE visible
20 Nov - 21:05:03 10° NNW 21:10:32 13° N 21:16:48 10° NNE visible
20 Nov - 23:17:49 10° NNW 23:31:49 27° NNE 23:46:53 10° ENE visible
21 Nov - 01:31:38 10° NW 01:51:10 59° NE 02:07:21 10° ESE visible
21 Nov - 03:48:47 10° WNW 04:08:02 64° SW 04:20:50 10° SE visible
21 Nov - 06:13:03 10° WSW 06:22:51 20° SW 06:30:01 10° S daylight
21 Nov - 15:17:16 10° WSW 15:21:20 64° NNW 15:27:33 10° NE daylight
21 Nov - 17:31:16 10° NW 17:35:06 15° NNW 17:40:06 10° NNE daylight
21 Nov - 22:03:40 10° NNW 22:13:32 18° NNE 22:25:04 10° ENE visible
22 Nov - 00:16:13 10° NW 00:33:34 42° NNE 00:50:34 10° E visible
22 Nov - 02:31:15 10° NW 02:51:38 90° NE 03:06:51 10° SE visible
22 Nov - 04:51:34 10° W 05:07:26 36° SW 05:18:09 10° SSE visible
22 Nov - 14:04:31 10° SW 14:08:04 42° SE 14:12:36 10° ENE daylight
22 Nov - 16:16:23 10° WNW 16:20:13 22° NNW 16:25:40 10° NNE daylight
22 Nov - 20:50:42 10° N 20:55:23 12° NNE 21:00:40 10° NNE visible
22 Nov - 23:01:38 10° NNW 23:15:46 29° NNE 23:31:37 10° E visible
23 Nov - 01:15:00 10° NW 01:34:32 66° NE 01:51:41 10° ESE visible
23 Nov - 03:32:15 10° WNW 03:51:31 58° SW 04:05:05 10° SE visible
23 Nov - 05:57:34 10° WSW 06:07:05 18° SW 06:14:19 10° S daylight
23 Nov - 12:52:56 10° S 12:54:48 13° SE 12:56:44 10° ESE daylight
23 Nov - 15:02:25 10° WSW 15:06:10 42° NNW 15:11:27 10° NE daylight
23 Nov - 17:18:58 10° NNW 17:20:07 10° NNW 17:21:21 10° N daylight
23 Nov - 21:47:58 10° NNW 21:57:55 19° NNE 22:09:52 10° ENE visible
23 Nov - 23:59:47 10° NW 00:17:05 47° NE 00:34:58 10° ESE visible
24 Nov - 02:14:40 10° WNW 02:34:55 82° SW 02:51:02 10° SE visible
24 Nov - 04:35:29 10° W 04:51:12 33° SW 05:02:24 10° SSE visible
24 Nov - 13:49:11 10° SW 13:52:49 65° SE 13:57:11 10° ENE daylight
24 Nov - 16:02:27 10° NW 16:05:12 15° NNW 16:08:36 10° NNE daylight
24 Nov - 20:36:01 10° N 20:40:12 12° NNE 20:44:52 10° NE visible
24 Nov - 22:45:30 10° NNW 22:59:36 32° NNE 23:16:08 10° E visible
25 Nov - 00:58:30 10° NW 01:17:47 73° NE 01:35:50 10° ESE visible
25 Nov - 03:15:53 10° WNW 03:34:56 52° SW 03:49:14 10° SE visible
25 Nov - 05:42:10 10° WSW 05:51:22 17° SSW 05:58:35 10° S daylight
25 Nov - 12:36:43 10° SSW 12:39:35 20° SSE 12:42:23 10° E daylight
25 Nov - 14:47:44 10° W 14:51:03 27° NNW 14:55:18 10° NNE daylight
25 Nov - 21:32:12 10° NNW 21:42:11 21° NNE 21:54:35 10° ENE visible
25 Nov - 23:43:28 10° NW 00:00:28 52° NE 00:19:08 10° ESE visible
26 Nov - 01:58:16 10° WNW 02:18:08 75° SW 02:35:05 10° SE visible
26 Nov - 04:19:34 10° W 04:35:01 30° SW 04:46:34 10° SSE visible
26 Nov - 13:33:57 10° WSW 13:37:37 79° NW 13:41:43 10° NE daylight
26 Nov - 20:20:57 10° N 20:24:56 12° NNE 20:29:26 10° NE visible
26 Nov - 22:29:25 10° NNW 22:43:18 35° NE 23:00:27 10° E visible
27 Nov - 00:42:10 10° NW 01:00:57 81° NE 01:19:48 10° ESE visible
27 Nov - 02:59:43 10° WNW 03:18:22 47° SW 03:33:16 10° SSE visible
27 Nov - 05:26:53 10° WSW 05:35:45 16° SSW 05:42:54 10° S visible
27 Nov - 12:20:47 10° SSW 12:24:24 30° SSE 12:27:41 10° E daylight
27 Nov - 14:33:18 10° WNW 14:35:56 18° NNW 14:38:58 10° NNE daylight
27 Nov - 21:16:23 10° NNW 21:26:21 22° NNE 21:39:11 10° ENE visible
27 Nov - 23:27:17 10° NW 23:43:47 58° NE 00:03:06 10° ESE visible
28 Nov - 01:42:01 10° WNW 02:01:20 67° SW 02:18:58 10° SE visible
28 Nov - 04:03:50 10° W 04:18:53 27° SSW 04:30:41 10° SSE visible
28 Nov - 11:08:19 10° S 11:10:36 13° SSE 11:12:36 10° SE daylight
28 Nov - 13:18:47 10° WSW 13:22:27 48° NW 13:26:11 10° NE daylight
28 Nov - 20:05:29 10° N 20:09:35 12° NNE 20:14:16 10° NE visible
28 Nov - 22:13:25 10° NNW 22:26:55 39° NE 22:44:33 10° E visible
